Regional Weather Roundup
Issued by NWS Binghamton, NY

Home | Current Version | Previous Version | Text Only | Print | Product List | Glossary On
Versions: 1 2 3 4 5 6 7 8 9 10 11 12 13 14 15 16 17 18 19 20 21 22 23 24 25 26 27 28 29 30 31
000
ASUS41 KBGM 221410
RWRBGM
RWRBGM
BINGHAMTON REGIONAL WEATHER ROUNDUP
NATIONAL WEATHER SERVICE BINGHAMTON NY
1000 AM EDT WED OCT 22 2014

Note: "fair" indicates few or no clouds below 12,000 feet with no
significant weather and/or obstructions to visibility.

* = Station(s) that does not report precipitation, such as rain,
snow, etc, also no thunder or fog.

!NYZ009-015>018-022>025-036-037-044>046-055>057-062-221500
...CENTRAL NEW YORK...

CITY           SKY/WX    TMP DP  RH WIND       PRES   REMARKS
BINGHAMTON     CLOUDY    48  45  89 NE10G21   30.07R
CORTLAND       CLOUDY    46  45  93 N7        30.12S
DANSVILLE      CLOUDY    46  44  93 N8        30.19R
ELMIRA         CLOUDY    47  45  93 NE10G22   30.11R
ITHACA         CLOUDY    46  44  93 N6        30.13R FOG
HAMILTON       CLOUDY    48  45  87 N6        30.11S
MONTICELLO     CLOUDY    48  46  93 NE6       30.01S
NORWICH        CLOUDY    46  45  93 N7        30.11R
PENN YAN       CLOUDY    46  44  93 N10       30.15R
ROME           PTSUNNY   50  45  83 N7        30.14R
SIDNEY         CLOUDY    52  50  93 NE7       30.07R
SYRACUSE       CLOUDY    48  44  87 N8        30.15R
$$

!PAZ038>040-043-044-047-048-072-221500
...NORTHEAST PENNSYLVANIA...

CITY           SKY/WX    TMP DP  RH WIND       PRES   REMARKS
HAZLETON       RAIN      48  46  93 N10       30.02R
SCRANTON       CLOUDY    53  47  79 N10       30.01R
TOWANDA*       CLOUDY    48  48 100 N7        30.08S
$$
&&
KEY
WCI = WIND CHILL INDEX
VSB = VISIBILITY
HX  = HEAT INDEX
$$



USA.gov is the U.S. government's official web portal to all federal, state and local government web resources and services.